Date String (YYYY-MM-DD hh:mm:ss) UTC,Instrument flags,Ambient pressure (hPa),Sample flow (lpm),Bypass flow (lpm),Sample temperature (°C),Ambient temperature (°C),ASC tube jacket temperature (°C),LED temperature (°C),Box temperature (°C),Sample RH (%),Span deviation,Mass concentration (μg/m³),Mass concentration (μg/m³),Mass concentration (μg/m³)
DateTimeUTC,F1_M11,P_M11,Q1_M11,Q2_M11,T1_M11,T2_M11,T3_M11,T4_M11,T5_M11,U1_M11,ZSPAN_M11,X0_M11,X2_M11,X1_M11
2022-02-18 21:00:00,,0828.9,4.99,0.00,26.9,26.2,00.0,35.8,28.8,08.4,0000.0,0010.68,0005.85,0005.39
2022-02-18 21:01:00,,0828.9,5.01,0.00,26.9,26.2,00.0,35.8,28.8,08.3,0000.0,0010.76,0005.88,0005.41
2022-02-18 21:02:00,,0828.6,4.99,0.00,26.9,26.2,00.0,35.8,28.8,08.4,0000.0,0010.67,0005.88,0005.43
2022-02-18 21:03:00,,0828.6,5.00,0.00,27.0,26.2,00.0,35.8,28.9,08.4,0000.0,0010.81,0005.93,0005.45
2022-02-18 21:04:00,,0828.7,4.99,0.00,27.0,26.2,00.0,35.8,28.9,08.4,0000.0,0010.89,0005.95,0005.47
2022-02-18 21:05:00,,0828.7,5.01,0.00,27.0,26.2,00.0,35.8,28.9,08.4,0000.0,0010.71,0005.96,0005.49
2022-02-18 21:06:00,,0828.8,4.98,0.00,27.0,26.3,00.0,35.8,28.9,08.5,0000.0,0010.28,0005.96,0005.50
2022-02-18 21:07:00,,0829.1,5.02,0.00,27.0,26.3,00.0,35.9,28.9,08.7,0000.0,0010.25,0005.96,0005.52
2022-02-18 21:08:00,,0829.2,4.98,0.00,27.0,26.3,00.0,35.9,28.9,08.6,0000.0,0010.29,0005.97,0005.53
2022-02-18 21:09:00,,0829.3,5.01,0.00,27.1,26.3,00.0,35.9,29.0,08.4,0000.0,0010.21,0005.99,0005.56
2022-02-18 21:10:00,,0829.0,4.98,0.00,27.1,26.3,00.0,35.9,29.0,08.3,0000.0,0010.19,0005.99,0005.58
2022-02-18 21:11:00,,0828.8,5.01,0.00,27.1,26.3,00.0,35.9,29.0,08.3,0000.0,0010.14,0006.00,0005.59
2022-02-18 21:12:00,,0828.9,5.00,0.00,27.1,26.3,00.0,35.9,29.0,08.4,0000.0,0010.06,0006.01,0005.59
2022-02-18 21:13:00,,0829.0,4.99,0.00,27.1,26.3,00.0,35.9,29.0,08.5,0000.0,0010.13,0006.05,0005.60
2022-02-18 21:14:00,,0829.0,5.02,0.00,27.1,26.3,00.0,36.0,29.0,08.5,0000.0,0010.09,0006.08,0005.63
2022-02-18 21:15:00,,0829.1,5.00,0.00,27.1,26.3,00.0,36.0,29.0,08.5,0000.0,0010.34,0006.08,0005.64
2022-02-18 21:16:00,,0829.1,5.00,0.00,27.1,26.3,00.0,36.0,29.0,08.9,0000.0,0010.62,0006.06,0005.64
2022-02-18 21:17:00,,0829.1,5.00,0.00,27.1,26.3,00.0,36.0,29.0,08.6,0000.0,0010.69,0006.07,0005.64
2022-02-18 21:18:00,,0829.1,5.00,0.00,27.2,26.3,00.0,36.0,29.1,08.5,0000.0,0010.86,0006.08,0005.65
2022-02-18 21:19:00,,0829.1,5.00,0.00,27.2,26.3,00.0,36.0,29.1,08.4,0000.0,0011.33,0006.09,0005.65
2022-02-18 21:20:00,,0829.1,4.98,0.00,27.2,26.4,00.0,36.0,29.1,08.4,0000.0,0011.58,0006.09,0005.64
2022-02-18 21:21:00,,0829.1,5.01,0.00,27.2,26.4,00.0,36.0,29.1,08.4,0000.0,0011.62,0006.13,0005.63
2022-02-18 21:22:00,,0829.1,5.00,0.00,27.2,26.4,00.0,36.0,29.1,08.5,0000.0,0012.01,0006.17,0005.65
2022-02-18 21:23:00,,0829.1,4.99,0.00,27.2,26.4,00.0,36.1,29.1,08.3,0000.0,0012.23,0006.19,0005.67
2022-02-18 21:24:00,,0829.0,5.01,0.00,27.2,26.4,00.0,36.1,29.1,08.3,0000.0,0012.20,0006.18,0005.68
2022-02-18 21:25:00,,0829.0,4.99,0.00,27.2,26.4,00.0,36.1,29.1,08.3,0000.0,0012.32,0006.18,0005.68
2022-02-18 21:26:00,,0829.0,4.99,0.00,27.2,26.4,00.0,36.1,29.1,08.4,0000.0,0012.08,0006.18,0005.70
2022-02-18 21:27:00,,0829.0,4.99,0.00,27.2,26.4,00.0,36.1,29.1,08.6,0000.0,0011.77,0006.22,0005.71
2022-02-18 21:28:00,,0829.0,5.02,0.00,27.3,26.4,00.0,36.1,29.2,08.4,0000.0,0012.06,0006.28,0005.73
2022-02-18 21:29:00,,0829.0,4.99,0.00,27.3,26.4,00.0,36.1,29.2,08.3,0000.0,0011.85,0006.26,0005.74
2022-02-18 21:30:00,,0829.0,4.98,0.00,27.3,26.5,00.0,36.1,29.2,08.5,0000.0,0011.33,0006.27,0005.76
2022-02-18 21:31:00,,0828.9,5.00,0.00,27.3,26.5,00.0,36.1,29.2,08.4,0000.0,0011.26,0006.28,0005.78
2022-02-18 21:32:00,,0829.0,5.02,0.00,27.3,26.5,00.0,36.1,29.2,08.6,0000.0,0011.21,0006.27,0005.81
2022-02-18 21:33:00,,0829.1,4.99,0.00,27.3,26.5,00.0,36.2,29.2,08.4,0000.0,0010.56,0006.25,0005.81
2022-02-18 21:34:00,,0829.1,5.01,0.00,27.3,26.5,00.0,36.2,29.2,08.4,0000.0,0010.39,0006.26,0005.83
2022-02-18 21:35:00,,0829.1,4.99,0.00,27.3,26.5,00.0,36.2,29.2,08.3,0000.0,0010.53,0006.28,0005.84
2022-02-18 21:36:00,,0829.1,4.99,0.00,27.3,26.5,00.0,36.2,29.2,08.4,0000.0,0010.30,0006.24,0005.84
2022-02-18 21:37:00,,0829.2,5.02,0.00,27.3,26.5,00.0,36.2,29.2,08.2,0000.0,0010.31,0006.27,0005.86
2022-02-18 21:38:00,,0829.2,5.00,0.00,27.3,26.5,00.0,36.2,29.2,08.2,0000.0,0010.22,0006.27,0005.88
2022-02-18 21:39:00,,0829.2,5.00,0.00,27.4,26.5,00.0,36.2,29.2,08.1,0000.0,0010.08,0006.22,0005.88
2022-02-18 21:40:00,,0829.2,4.99,0.00,27.3,26.5,00.0,36.2,29.2,08.2,0000.0,0010.39,0006.25,0005.89
2022-02-18 21:41:00,,0829.2,5.01,0.00,27.4,26.5,00.0,36.2,29.2,08.2,0000.0,0010.51,0006.29,0005.90
2022-02-18 21:42:00,,0829.2,4.99,0.00,27.4,26.5,00.0,36.2,29.2,08.3,0000.0,0010.43,0006.28,0005.91
2022-02-18 21:43:00,,0829.2,4.99,0.00,27.4,26.6,00.0,36.2,29.2,08.5,0000.0,0010.42,0006.30,0005.92
2022-02-18 21:44:00,,0829.2,5.01,0.00,27.4,26.6,00.0,36.2,29.2,08.4,0000.0,0010.49,0006.34,0005.94
2022-02-18 21:45:00,,0829.2,4.99,0.00,27.4,26.6,00.0,36.2,29.2,08.4,0000.0,0011.11,0006.39,0005.97
2022-02-18 21:46:00,,0829.2,5.01,0.00,27.4,26.6,00.0,36.3,29.2,08.2,0000.0,0011.48,0006.45,0006.00
2022-02-18 21:47:00,,0829.2,5.00,0.00,27.4,26.6,00.0,36.3,29.2,08.1,0000.0,0012.57,0006.53,0006.05
2022-02-18 21:48:00,,0829.2,4.99,0.00,27.4,26.6,00.0,36.3,29.3,08.2,0000.0,0012.96,0006.55,0006.07
2022-02-18 21:49:00,,0829.2,5.02,0.00,27.4,26.6,00.0,36.3,29.3,08.4,0000.0,0013.00,0006.61,0006.09
2022-02-18 21:50:00,,0829.2,5.01,0.00,27.4,26.7,00.0,36.3,29.3,08.4,0000.0,0012.86,0006.67,0006.12
2022-02-18 21:51:00,,0829.2,4.99,0.00,27.4,26.7,00.0,36.3,29.3,08.3,0000.0,0012.67,0006.71,0006.16
2022-02-18 21:52:00,,0829.2,4.99,0.00,27.5,26.7,00.0,36.3,29.3,08.2,0000.0,0012.66,0006.72,0006.18
2022-02-18 21:53:00,,0829.2,5.00,0.00,27.5,26.7,00.0,36.3,29.3,08.2,0000.0,0012.74,0006.76,0006.21
2022-02-18 21:54:00,,0829.2,5.01,0.00,27.5,26.7,00.0,36.3,29.3,08.3,0000.0,0012.77,0006.78,0006.24
2022-02-18 21:55:00,,0829.2,5.02,0.00,27.5,26.7,00.0,36.4,29.4,08.3,0000.0,0012.87,0006.79,0006.26
2022-02-18 21:56:00,,0829.2,4.99,0.00,27.5,26.8,00.0,36.4,29.4,08.2,0000.0,0012.51,0006.82,0006.28
2022-02-18 21:57:00,,0829.2,4.99,0.00,27.5,26.8,00.0,36.4,29.4,08.2,0000.0,0012.05,0006.79,0006.28
2022-02-18 21:58:00,,0829.2,5.02,0.00,27.5,26.8,00.0,36.4,29.4,08.3,0000.0,0011.20,0006.79,0006.28
2022-02-18 21:59:00,,0829.2,5.00,0.00,27.5,26.8,00.0,36.4,29.4,08.2,0000.0,0010.67,0006.80,0006.30
